FW6259 Weather Reports


time (UTC)temp
C
wind
direction
speed
KPH
gust
KPH
rain 1hr
cm
rain 24hr
cm
rain mn
cm
humidity
%
barometer
mb
20260904181510 9 201 1.6 6.4 0.00 0.00 0.00 73 1023.8
20260904174548 8 233 0.0 4.8 0.00 0.00 0.00 76 1023.8
20260904173117 8 252 0.0 6.4 0.00 0.00 0.00 76 1023.8
20260904171600 8 134 0.0 3.2 0.00 0.00 0.00 77 1023.8
20260904170059 8 120 0.0 1.6 0.00 0.00 0.00 78 1023.7
20260904164504 6 86 0.0 0.0 0.00 0.00 0.00 84 1023.9
20260904163053 6 92 0.0 3.2 0.00 0.00 0.00 85 1023.9
20260904161551 6 86 0.0 1.6 0.00 0.00 0.00 84 1023.9
20260904160041 6 93 1.6 4.8 0.00 0.00 0.00 84 1024.2
20260904154557 5 82 0.0 3.2 0.00 0.00 0.00 87 1024.1
20260904153056 3 35 0.0 0.0 0.00 0.00 0.00 88 1024.1
20260904151505 3 36 0.0 1.6 0.00 0.00 0.00 89 1024.1
20260904150055 3 34 0.0 0.0 0.00 0.00 0.00 88 1024.1
20260904144554 3 35 0.0 0.0 0.00 0.00 0.00 87 1024.1
20260904143042 3 85 0.0 1.6 0.00 0.00 0.00 87 1024.3
20260904141602 3 243 0.0 1.6 0.00 0.00 0.00 86 1024.0
20260904140052 3 245 0.0 0.0 0.00 0.00 0.00 85 1024.6
20260904134504 3 245 0.0 0.0 0.00 0.00 0.00 86 1024.4
20260904133055 3 245 0.0 0.0 0.00 0.00 0.00 85 1024.2
20260904131552 3 245 0.0 1.6 0.00 0.00 0.00 85 1024.1
20260904130057 3 244 0.0 0.0 0.00 0.00 0.00 85 1024.0
20260904124658 3 244 0.0 1.6 0.00 0.00 0.00 86 1024.0
20260904123049 3 244 0.0 0.0 0.00 0.00 0.00 85 1024.0
20260904121502 3 245 0.0 0.0 0.00 0.00 0.00 84 1023.7
20260904120057 3 245 0.0 0.0 0.00 0.00 0.00 84 1023.5
20260904114549 3 245 0.0 0.0 0.00 0.00 0.00 84 1023.4
20260904113101 3 245 0.0 0.0 0.00 0.00 0.00 83 1023.6
20260904111610 4 245 0.0 0.0 0.00 0.00 0.00 85 1023.6
20260904110047 4 245 0.0 0.0 0.00 0.00 0.00 82 1023.7
20260904104501 4 245 0.0 1.6 0.00 0.00 0.00 82 1023.6
20260904103055 5 215 0.0 0.0 0.00 0.00 0.00 82 1023.7
20260904101552 5 316 0.0 0.0 0.00 0.00 0.00 81 1023.8
20260904100045 5 322 0.0 1.6 0.00 0.00 0.00 80 1023.8
20260904094611 5 322 0.0 3.2 0.00 0.00 0.00 81 1023.8
20260904093051 5 234 0.0 0.0 0.00 0.00 0.00 79 1023.7
20260904091505 5 234 0.0 1.6 0.00 0.00 0.00 78 1023.7
20260904090055 6 233 0.0 1.6 0.00 0.00 0.00 78 1023.6
20260904084549 6 281 0.0 0.0 0.00 0.00 0.00 77 1023.8
20260904083003 6 234 0.0 1.6 0.00 0.00 0.00 75 1023.7
20260904081636 6 245 3.2 6.4 0.00 0.00 0.00 76 1023.4
20260904080043 6 251 0.0 0.0 0.00 0.00 0.00 75 1023.6
20260904074501 7 251 0.0 0.0 0.00 0.00 0.00 72 1023.6
20260904073104 7 250 0.0 1.6 0.00 0.00 0.00 73 1023.8
20260904071547 7 346 0.0 1.6 0.00 0.00 0.00 73 1023.8
20260904070109 7 346 0.0 0.0 0.00 0.00 0.00 73 1023.7
20260904064551 7 345 0.0 0.0 0.00 0.00 0.00 70 1023.9
20260904063054 7 345 1.6 4.8 0.00 0.00 0.00 70 1023.9
20260904061604 8 3 0.0 1.6 0.00 0.00 0.00 68 1023.8
20260904060048 9 18 0.0 0.0 0.00 0.00 0.00 64 1023.6
20260904054550 10 18 0.0 0.0 0.00 0.00 0.00 64 1023.7
20260904053059 10 16 0.0 1.6 0.00 0.00 0.00 62 1023.5
20260904051555 10 14 0.0 3.2 0.00 0.00 0.00 62 1023.4
20260904050045 10 354 1.6 4.8 0.00 0.00 0.00 63 1023.4
20260904044503 10 162 0.0 3.2 0.00 0.00 0.00 65 1023.6
20260904043058 10 115 0.0 1.6 0.00 0.00 0.00 66 1023.7
20260904041547 11 11 0.0 1.6 0.00 0.00 0.00 64 1023.6
20260904040058 11 13 0.0 1.6 0.00 0.00 0.00 61 1023.5
20260904034554 12 13 0.0 0.0 0.00 0.00 0.00 61 1023.4
20260904033043 12 13 0.0 1.6 0.00 0.00 0.00 57 1023.5
20260904031558 13 96 0.0 6.4 0.00 0.00 0.00 56 1023.5
20260904030053 13 79 1.6 4.8 0.00 0.00 0.00 54 1023.5
20260904024550 13 61 0.0 6.4 0.00 0.00 0.00 54 1023.6
20260904023058 13 62 1.6 4.8 0.00 0.00 0.00 52 1023.6
20260904021557 13 114 0.0 6.4 0.00 0.00 0.00 52 1023.6
20260904020045 13 75 1.6 6.4 0.00 0.00 0.00 52 1023.7
20260904014642 14 89 1.6 3.2 0.00 0.00 0.00 50 1023.9
20260904013056 14 293 0.0 8.0 0.00 0.00 0.00 48 1024.0
20260904011547 15 270 1.6 6.4 0.00 0.00 0.00 48 1024.1
20260904010057 14 257 0.0 4.8 0.00 0.00 0.00 51 1024.1
20260904004553 13 69 0.0 3.2 0.00 0.00 0.00 51 1024.1
20260904003042 13 102 0.0 3.2 0.00 0.00 0.00 51 1024.3
20260904001554 12 248 0.0 3.2 0.00 0.00 0.00 51 1024.5
20260904000137 12 113 1.6 4.8 0.00 0.00 0.00 50 1024.5
20260903234547 13 144 1.6 6.4 0.00 0.00 0.00 51 1024.3
20260903233058 13 72 1.6 4.8 0.00 0.00 0.00 49 1024.7
20260903231601 12 98 1.6 4.8 0.00 0.00 0.00 50 1025.1
20260903230044 12 293 1.6 6.4 0.00 0.00 0.00 50 1025.4
20260903224503 12 198 1.6 9.7 0.00 0.00 0.00 49 1025.0
20260903223050 12 243 4.8 9.7 0.00 0.00 0.00 50 1025.2
20260903221506 12 241 4.8 8.0 0.00 0.00 0.00 51 1025.3
20260903220113 11 231 1.6 8.0 0.00 0.00 0.00 50 1025.1
20260903214558 11 259 3.2 11.3 0.00 0.00 0.00 49 1025.5
20260903213049 11 228 1.6 6.4 0.00 0.00 0.00 48 1025.2
20260903211501 11 260 3.2 9.7 0.00 0.00 0.00 52 1025.6
20260903210054 11 258 1.6 6.4 0.00 0.00 0.00 55 1025.5
20260903204551 11 264 4.8 9.7 0.00 0.00 0.00 54 1025.7
20260903203003 11 238 4.8 14.5 0.00 0.00 0.00 54 1025.7
20260903201557 11 214 4.8 11.3 0.00 0.00 0.00 52 1025.7
20260903200053 11 162 3.2 6.4 0.00 0.00 0.00 54 1025.4
20260903194509 9 290 0.0 4.8 0.00 0.00 0.00 57 1025.5
20260903193055 8 221 1.6 6.4 0.00 0.00 0.00 60 1025.5
20260903191553 8 258 0.0 6.4 0.00 0.00 0.00 64 1025.8
20260903190107 7 287 3.2 6.4 0.00 0.00 0.00 64 1025.8
20260903184552 6 170 3.2 9.7 0.00 0.03 0.00 67 1026.0
20260903183047 6 167 1.6 3.2 0.00 0.03 0.00 70 1025.9